Waarnemingen

Advertentie
Mijn weer
Reus, Spanje (8175): temperatuur & dauwpunt: 14.01.2018 00:00:00 - 20.01.2018 00:00:00 (CET)Reus, Spanje (8175): windsnelheid & windstoten: 14.01.2018 00:00:00 - 20.01.2018 00:00:00 (CET)Reus, Spanje (8175): windrichting: 14.01.2018 00:00:00 - 20.01.2018 00:00:00 (CET)Reus, Spanje (8175): luchtdruk: 14.01.2018 00:00:00 - 20.01.2018 00:00:00 (CET)Reus, Spanje (8175): zicht: 14.01.2018 00:00:00 - 20.01.2018 00:00:00 (CET)
Datum & Tijd tt [°C] td [°C] ff [km/u] ff [kn] fx [km/u] fx [kn] dd ppp [hPa] vv [km]
20.01.2018 00:00:00 - - - - - - - - -
19.01.2018 23:00:00 8,4 4,8 13 7 - - NNW 1021,1 9
19.01.2018 22:00:00 7,9 5,4 2 1 - - OZO 1021,0 15
19.01.2018 21:00:00 6,2 3,9 4 2 - - NNO 1020,7 10
19.01.2018 20:00:00 8,0 4,5 4 2 - - ONO 1019,9 9
19.01.2018 19:00:00 9,4 5,5 5 3 - - NO 1019,4 25
19.01.2018 18:00:00 10,5 6,4 2 1 - - NNO 1018,8 25
19.01.2018 17:00:00 13,6 7,0 16 9 - - ZO 1017,5 30
19.01.2018 16:00:00 15,3 6,4 15 8 - - OZO 1017,2 30
19.01.2018 15:00:00 15,4 6,0 11 6 - - OZO 1017,0 30
19.01.2018 14:00:00 14,0 5,8 8 4 - - OZO 1017,4 30
19.01.2018 13:00:00 12,5 5,8 4 2 - - OZO 1018,0 25
19.01.2018 12:00:00 11,1 6,1 4 2 - - N 1018,9 15
19.01.2018 11:00:00 9,0 6,4 4 2 - - N 1019,5 4,5
19.01.2018 10:00:00 6,6 4,8 0 0 - - N 1019,5 9
19.01.2018 09:00:00 5,3 3,8 5 3 - - NW 1019,2 16
19.01.2018 08:00:00 4,9 3,5 9 5 - - N 1018,7 16
19.01.2018 07:00:00 3,9 2,9 2 1 - - ONO 1018,1 30
19.01.2018 06:00:00 5,3 4,0 4 2 - - NNW 1018,2 14
19.01.2018 05:00:00 4,9 3,1 8 4 - - N 1018,6 20
19.01.2018 04:00:00 4,2 1,7 4 2 - - NO 1019,1 19
19.01.2018 03:00:00 3,9 1,5 4 2 - - ZZO 1019,4 27
19.01.2018 02:00:00 5,4 2,5 8 4 - - NNO 1018,9 30
19.01.2018 01:00:00 5,2 2,5 11 6 - - N 1020,0 23
19.01.2018 00:00:00 5,2 2,5 8 4 - - N 1021,0 19
18.01.2018 23:00:00 5,5 2,6 8 4 - - N 1020,8 15
18.01.2018 22:00:00 6,0 2,9 8 4 - - N 1021,1 19
18.01.2018 21:00:00 6,4 3,4 8 4 - - NNW 1021,1 11
18.01.2018 20:00:00 8,0 5,7 8 4 - - N 1020,9 15
18.01.2018 19:00:00 10,8 8,8 11 6 - - WZW 1020,9 19
18.01.2018 18:00:00 11,9 8,3 11 6 - - ZW 1020,8 28
18.01.2018 17:00:00 14,0 7,2 18 10 - - Z 1020,8 24
18.01.2018 16:00:00 16,2 3,0 15 8 - - ZZW 1020,7 30
18.01.2018 15:00:00 16,6 2,6 15 8 - - ZZW 1021,2 30
18.01.2018 14:00:00 16,1 2,5 16 9 - - ZW 1022,3 16
18.01.2018 13:00:00 15,2 2,5 26 14 - - WZW 1023,8 30
18.01.2018 12:00:00 14,6 2,6 16 9 - - W 1025,0 19
18.01.2018 11:00:00 10,9 2,9 0 0 - - N 1025,9 25
18.01.2018 10:00:00 7,5 2,3 0 0 - - N 1025,9 10
18.01.2018 09:00:00 2,1 0,3 0 0 - - N 1026,0 26
18.01.2018 08:00:00 1,3 -0,8 4 2 - - NO 1025,6 23
18.01.2018 07:00:00 1,4 -0,8 4 2 - - ONO 1025,4 30
18.01.2018 06:00:00 2,4 0,2 4 2 - - NW 1025,1 30
18.01.2018 05:00:00 3,2 0,7 2 1 - - NNO 1025,2 30
18.01.2018 04:00:00 3,3 0,3 0 0 - - N 1025,5 30
18.01.2018 03:00:00 5,0 0,8 0 0 - - N 1026,1 30
18.01.2018 02:00:00 6,6 1,0 2 1 - - NO 1026,5 30
18.01.2018 01:00:00 9,7 2,6 18 10 - - WNW 1026,3 30
18.01.2018 00:00:00 10,1 3,0 26 14 - - WNW 1026,1 30
17.01.2018 23:00:00 10,4 2,6 22 12 - - W 1026,0 30
17.01.2018 22:00:00 10,5 2,9 16 9 - - WNW 1025,3 30
17.01.2018 21:00:00 11,4 3,0 22 12 - - WNW 1024,7 30
17.01.2018 20:00:00 12,1 2,6 24 13 - - WNW 1023,9 30
17.01.2018 19:00:00 13,0 2,0 24 13 - - WNW 1022,8 30
17.01.2018 18:00:00 13,8 2,3 37 20 - - WNW 1021,5 30
17.01.2018 17:00:00 15,3 1,3 34 18 - - WNW 1020,3 30
17.01.2018 16:00:00 16,2 1,8 44 24 - - WNW 1018,9 30
17.01.2018 15:00:00 16,8 2,3 54 29 81 44 WNW 1017,8 30
17.01.2018 14:00:00 16,6 2,8 48 26 80 43 W 1018,0 29
17.01.2018 13:00:00 16,6 2,5 35 19 - - WNW 1018,5 30
17.01.2018 12:00:00 16,3 1,9 34 18 81 44 NW 1019,5 30
17.01.2018 11:00:00 15,7 3,1 44 24 76 41 NW 1019,0 30
17.01.2018 10:00:00 15,3 3,0 48 26 - - W 1018,1 30
17.01.2018 09:00:00 15,0 3,1 41 22 - - W 1018,2 30
17.01.2018 08:00:00 14,3 4,1 26 14 - - WZW 1017,4 30
17.01.2018 07:00:00 14,2 5,4 39 21 - - WZW 1016,6 30
17.01.2018 06:00:00 14,3 6,3 41 22 - - WZW 1016,9 30
17.01.2018 05:00:00 14,6 6,5 39 21 - - W 1016,7 30
17.01.2018 04:00:00 14,4 6,4 37 20 - - W 1017,0 30
17.01.2018 03:00:00 14,4 6,5 48 26 - - W 1016,8 30
17.01.2018 02:00:00 14,7 6,7 44 24 - - W 1017,4 30
17.01.2018 01:00:00 14,8 6,9 50 27 - - W 1017,8 30
17.01.2018 00:00:00 14,7 7,0 44 24 - - W 1017,8 30
16.01.2018 23:00:00 14,7 6,9 41 22 - - W 1018,3 30
16.01.2018 22:00:00 15,1 7,0 35 19 - - W 1018,6 30
16.01.2018 21:00:00 15,4 6,8 26 14 - - W 1018,5 30
16.01.2018 20:00:00 15,9 6,7 16 9 - - W 1018,9 30
16.01.2018 19:00:00 16,5 6,8 22 12 - - WNW 1019,3 30
16.01.2018 18:00:00 16,9 6,8 15 8 - - WNW 1019,7 30
16.01.2018 17:00:00 18,4 6,7 28 15 - - W 1019,1 30
16.01.2018 16:00:00 18,9 6,6 29 16 - - WNW 1018,7 30
16.01.2018 15:00:00 18,8 6,5 37 20 80 43 W 1018,7 30
16.01.2018 14:00:00 17,9 5,9 55 30 85 46 WNW 1018,5 30
16.01.2018 13:00:00 16,9 5,3 55 30 - - W 1019,2 24
16.01.2018 12:00:00 16,9 5,1 21 11 - - WNW 1021,7 30
16.01.2018 11:00:00 14,3 3,7 28 15 - - WZW 1022,6 30
16.01.2018 10:00:00 12,4 2,9 35 19 - - W 1022,7 30
16.01.2018 09:00:00 10,8 2,2 31 17 - - W 1022,6 30
16.01.2018 08:00:00 9,8 1,3 26 14 - - W 1022,2 30
16.01.2018 07:00:00 10,4 1,1 31 17 - - WZW 1021,9 30
16.01.2018 06:00:00 10,8 0,9 29 16 - - ZW 1021,7 30
16.01.2018 05:00:00 10,6 0,7 35 19 - - WZW 1021,4 30
16.01.2018 04:00:00 10,6 1,0 34 18 - - WZW 1021,5 30
16.01.2018 03:00:00 10,4 1,2 24 13 - - ZW 1021,8 30
16.01.2018 02:00:00 10,3 1,0 22 12 - - WZW 1022,8 30
16.01.2018 01:00:00 9,7 1,2 13 7 - - WZW 1023,9 30
16.01.2018 00:00:00 9,9 1,1 16 9 - - ZW 1024,6 30
15.01.2018 23:00:00 8,8 1,4 15 8 - - ZZW 1024,6 30
15.01.2018 22:00:00 8,6 2,2 18 10 - - WZW 1024,5 30
15.01.2018 21:00:00 8,3 2,9 15 8 - - W 1024,5 30
15.01.2018 20:00:00 9,2 3,0 11 6 - - WZW 1024,3 30
15.01.2018 19:00:00 9,1 3,0 11 6 - - WZW 1024,2 30
15.01.2018 18:00:00 10,3 3,0 18 10 - - W 1024,0 30
15.01.2018 17:00:00 11,6 2,7 16 9 - - W 1024,0 30
15.01.2018 16:00:00 13,0 2,4 26 14 - - W 1023,2 30
15.01.2018 15:00:00 13,2 2,5 29 16 - - W 1023,0 30
15.01.2018 14:00:00 13,1 2,5 28 15 - - W 1023,7 30
15.01.2018 13:00:00 12,5 2,9 22 12 - - W 1024,8 30
15.01.2018 12:00:00 10,9 3,0 5 3 - - NNW 1025,5 30
15.01.2018 11:00:00 9,3 3,3 8 4 - - O 1025,9 30
15.01.2018 10:00:00 5,4 2,4 0 0 - - N 1025,4 12
15.01.2018 09:00:00 1,2 0,3 4 2 - - NW 1024,9 14
15.01.2018 08:00:00 0,7 -0,3 4 2 - - NNW 1024,2 13
15.01.2018 07:00:00 0,7 -0,2 8 4 - - ONO 1023,5 17
15.01.2018 06:00:00 1,3 0,3 9 5 - - N 1022,8 12
15.01.2018 05:00:00 0,2 -0,7 4 2 - - NNO 1022,8 12
15.01.2018 04:00:00 1,1 -0,1 0 0 - - N 1022,4 14
15.01.2018 03:00:00 1,6 0,1 0 0 - - N 1021,8 15
15.01.2018 02:00:00 2,7 1,0 2 1 - - NW 1021,6 19
15.01.2018 01:00:00 2,5 0,9 4 2 - - NNW 1021,8 19
15.01.2018 00:00:00 3,3 1,3 8 4 - - NNW 1021,5 17
14.01.2018 23:00:00 3,9 1,5 5 3 - - NNO 1020,8 30
14.01.2018 22:00:00 5,7 2,3 4 2 - - Z 1020,3 30
14.01.2018 21:00:00 6,6 2,7 2 1 - - N 1019,8 30
14.01.2018 20:00:00 6,6 2,8 2 1 - - NO 1019,3 30
14.01.2018 19:00:00 7,6 2,6 8 4 - - W 1018,3 30
14.01.2018 18:00:00 9,6 3,0 9 5 - - WNW 1017,5 30
14.01.2018 17:00:00 10,2 2,9 9 5 - - W 1017,0 30
14.01.2018 16:00:00 11,0 2,9 13 7 - - WNW 1016,4 30
14.01.2018 15:00:00 11,5 2,8 18 10 - - W 1016,0 30
14.01.2018 14:00:00 11,5 3,1 21 11 - - WNW 1015,5 30
14.01.2018 13:00:00 11,7 3,3 24 13 - - W 1016,0 30
14.01.2018 12:00:00 10,6 2,7 24 13 - - W 1016,8 30
14.01.2018 11:00:00 10,1 2,8 16 9 - - W 1016,9 30
14.01.2018 10:00:00 8,8 2,7 11 6 - - W 1016,4 30
14.01.2018 09:00:00 7,3 2,5 11 6 - - W 1015,8 30
14.01.2018 08:00:00 7,2 2,4 13 7 - - W 1015,2 30
14.01.2018 07:00:00 7,4 2,3 22 12 - - W 1014,8 30
14.01.2018 06:00:00 7,8 3,0 21 11 - - W 1014,4 30
14.01.2018 05:00:00 8,1 2,6 28 15 - - W 1014,2 30
14.01.2018 04:00:00 8,7 1,9 13 7 - - WNW 1014,5 30
14.01.2018 03:00:00 9,4 2,8 26 14 - - WNW 1014,2 30
14.01.2018 02:00:00 9,4 3,5 15 8 - - WNW 1014,5 30
14.01.2018 01:00:00 8,5 4,8 11 6 - - W 1014,9 30
14.01.2018 00:00:00 8,5 6,4 8 4 - - W 1015,3 24

tt = temperatuur
td = dauwpunt
ff = windsnelheid
fx = windstoten
dd = windrichting
ppp = luchtdruk
vv = zicht

Weerstations in de omgeving